Regional Weather Roundup
Issued by NWS Charleston, SC

Current Version | Previous Version | Graphics & Text | Print | Product List | Glossary On
Versions: 1 2 3 4 5 6 7 8 9 10 11 12 13 14 15 16 17 18 19 20 21 22 23 24 25 26 27 28 29 30 31 32 33 34 35 36 37 38 39 40 41 42 43 44 45 46 47 48 49 50
000
ASUS42 KCHS 262127
RWRCHS

REGIONAL WEATHER ROUNDUP
NATIONAL WEATHER SERVICE CHARLESTON SC
500 PM EDT TUE MAY 26 2015

NOTE: "FAIR" INDICATES FEW OR NO CLOUDS BELOW 12,000 FEET WITH NO
SIGNIFICANT WEATHER AND/OR OBSTRUCTIONS TO VISIBILITY.

NOT ALL STATIONS ARE QUALITY CONTROLLED BY THE NATIONAL
WEATHER SERVICE. USE DATA WITH CAUTION...ESPECIALLY
DEWPOINT OBSERVATIONS.

SCZ027-030-031-034>040-042>050-262200-
...SOUTHEAST SOUTH CAROLINA...

CITY           SKY/WX    TMP DP  RH WIND       PRES   REMARKS
N CHARLESTON   PTSUNNY   86  66  51 S14       30.20S
WATERFRONT PAR   N/A     80  71  74 SE9       30.18F
MOUNT PLEASANT LGT RAIN  81  72  74 SE8       30.22R
JOHNS ISLAND   CLEAR     82  72  69 SE8       30.22R
PINOPOLIS        N/A     91  70  49 S6        30.12F HX  97
MONCKS CORNER  FAIR      86  68  54 SE10G16   30.19S
SUMMERVILLE    FAIR      86  68  54 S8        30.20S
BEAUFORT MCAS  MOSUNNY   86  70  58 S9        30.20S HX  90
BEAUFORT ARPT  FAIR      82  72  69 S9        30.20S
HILTON HEAD IS MOSUNNY   81  72  74 S8        30.22S
WALTERBORO     PTCLDY    86  64  48 S12G17    30.19S
ALLENDALE      MOCLDY    88  70  55 S12G21    30.16S HX  92

...SOUTHERN MIDLANDS AND PEE DEE...

CITY           SKY/WX    TMP DP  RH WIND       PRES   REMARKS
GEORGETOWN     NOT AVBL
KINGSTREE      NOT AVBL
ORANGEBURG     MOSUNNY   87  68  52 SE14G20   30.17F HX  90
BARNWELL       MOCLDY    84  75  74 E8        30.17S HX  92
AIKEN          TSTM      72  64  78 E9G25     30.22R
MANNING        MOCLDY    86  19   8 S9        30.18S
COLUMBIA       PTSUNNY   88  66  48 E8        30.15F HX  90
SUMTER         MOSUNNY   90  66  44 S9        30.15F HX  92
FLORENCE       MOSUNNY   91  65  41 S8        30.17F HX  93
MYRTLE BEACH   MOSUNNY   81  70  69 SE12      30.24F
N MYRTLE BEACH PTSUNNY   79  70  74 S12       30.23F

$$

GAZ063-065-086>088-099>101-113>116-118-119-134>141-150-262200-
...SOUTHEAST GEORGIA...

CITY           SKY/WX    TMP DP  RH WIND       PRES   REMARKS
SAVANNAH ARPT  CLOUDY    84  67  56 S13       30.19S
HUNTER AAF     MOSUNNY   83  71  68 SE10      30.18S
FORT STEWART   PTSUNNY   86  71  59 SE13G20   30.16S HX  91
STATESBORO     MOSUNNY   89  71  55 SE9       30.16S HX  94
SYLVANIA       PTCLDY    90  70  51 S6        30.17F HX  95
CLAXTON        FAIR      86  70  58 SE9       30.15F HX  90

...CSRA...CENTRAL AND FAR SOUTHEAST GEORGIA...

CITY           SKY/WX    TMP DP  RH WIND       PRES   REMARKS
THOMSON        MOSUNNY   90  70  52 CALM      30.19S HX  95
AUGUSTA-BUSH   MOSUNNY   85  69  58 SE5       30.14F
AUGUSTA-DANIEL LGT RAIN  87  69  54 SE17      30.16F HX  91
SWAINSBORO     FAIR      90  66  45 S7        30.15F HX  92
VIDALIA        MOSUNNY   90  63  40 S8        30.14S HX  90
EASTMAN        FAIR      85  73  65 CALM      30.17S HX  92
HAZLEHURST     FAIR      90  68  48 SE6       30.13S HX  93
ALMA           MOSUNNY   90  67  46 SE6       30.13F HX  93
WAYCROSS       PTSUNNY   89  73  59 SE10      30.13S HX  96
JESUP          FAIR      90  70  51 SE10G16   30.16F HX  95
BAXLEY         FAIR      91  68  46 S6        30.13F HX  95
BRUNSWICK      MOSUNNY   84  70  61 E12G18    30.19F
SAINT SIMONS   NOT AVBL

$$

SCZ027-028-034-036>038-045-046-048>050-GAZ119-141-262200-
...LAKE AND SUPPLEMENTAL COASTAL OBSERVATIONS...

STATION/POSITION TIME  TEMP    WIND        PRES    WAVE   SWELL
                       AIR SEA DIR/SP/G            HT/PER HT/PER/DIR
                 (UTC) (F)     (DEG/KT/KT) (MB)    (FT/S) (FT/S/D)
UPR LAKE MARION  NOT AVBL
WINYAH BAY       2000   78     130/ 11     1023.0
LAKE MURRAY      2000   83     280/  2/  2 1021.0F
ACE BASIN NERRS  NOT AVBL
FORT PULASKI     2100   81 78  130/  9/ 13 1023.4S
SAPELO ISLAND    2100   86     120/  9     1022.0F

$$

ANZ835-935-AMZ111-154-330-350-352-354-370-450-454-472-262200-
...C-MAN AND BUOY OBSERVATIONS...

STATION/POSITION TIME  TEMP    WIND        PRES    WAVE   SWELL
                       AIR SEA DIR/SP/G            HT/PER HT/PER/DIR
                 (UTC) (F)     (DEG/KT/KT) (MB)    (FT/S) (FT/S/D)
BUOY 41004       2050   75 77   60/ 10/ 12 1023.3F   3/ 6   3/ 6
BUOY 41008       2050   78 78  120/  8/ 10 1022.8F   3/ 7   2/ 90/ 7
FOLLY BEACH CMAN 2100   78     140/  9/ 10 1023.5S
CAPERS NEARSHORE 2008   79     140/ 10/ 12 1023.4F
FRIPP NEARSHORE  NOT AVBL


STATION/POSITION TIME  TEMP    WIND        PRES    WAVE   SWELL
                       AIR SEA DIR/SP/G            HT/PER HT/PER/DIR
                 (UTC) (F)     (DEG/KT/KT) (MB)    (FT/S) (FT/S/D)
5E ST. MARYS GA  2021      80                N/A     3/ 7
FRYING PAN BUOY  2050   78 75  150/ 14/ 17 1024.9F   3/ 6   2/100/ 8
BUOY 41025       2050   75 77  160/ 16/ 17 1026.0F   3/ 7   2/130/ 7
CAPE LOOKOUT NC  2100   75     150/ 14/ 15 1025.2F
BUOY 41002       2050   74 75  110/ 12/ 14 1026.4F   3/ 7   2/130/ 7
BUOY 41010       2020   78 81   90/ 14/ 17 1023.1F
ST AUGUSTINE FL  2100   79 82  140/ 15/ 15 1022.4F


$$


USA.gov is the U.S. government's official web portal to all federal, state and local government web resources and services.